CW0630 Weather Reports


Display with metric or nautical units.
time (UTC)temp
F
wind
direction
speed
MPH
gust
MPH
rain 1hr
in
rain 24hr
in
rain mn
in
humidity
%
barometer
mb
20260906231029 77 40 0.0 0.0 0.00 0.00 0.00 66 1014.5
20260906221016 80 90 2.0 2.0 0.00 0.00 0.00 59 1014.4
20260906211028 81 11 0.0 0.0 0.00 0.00 0.00 52 1014.2
20260906201020 80 319 0.0 0.0 0.00 0.00 0.00 58 1014.4
20260906191036 82 9 1.0 5.0 0.00 0.01 0.00 56 1014.4
20260906181027 84 28 2.0 2.0 0.00 0.04 0.00 56 1014.9
20260906171015 83 78 0.0 3.0 0.00 0.07 0.00 55 1015.1
20260906161025 81 291 3.0 3.0 0.00 0.35 0.00 62 1015.2
20260906151020 80 340 0.0 0.0 0.00 0.35 0.00 64 1015.3
20260906141012 76 28 0.0 0.0 0.00 0.35 0.00 78 1015.0
20260906131029 72 355 0.0 2.0 0.00 0.35 0.00 87 1014.6
20260906121050 71 5 3.0 3.0 0.00 0.35 0.00 88 1014.4
20260906111014 70 31 0.0 1.0 0.00 0.35 0.00 92 1013.6
20260906101022 70 355 0.0 0.0 0.00 0.36 0.00 94 1012.9
20260906091023 71 360 0.0 0.0 0.00 0.36 0.00 96 1012.4
20260906081055 72 340 0.0 0.0 0.00 0.36 0.00 96 1012.2
20260906071015 72 344 0.0 0.0 0.00 0.36 0.00 96 1011.9
20260906061020 72 350 0.0 0.0 0.00 0.36 0.00 96 1012.3
20260906051027 72 360 0.0 0.0 0.00 0.36 0.00 96 1012.5
20260906041036 72 312 0.0 0.0 0.00 0.36 0.00 96 1012.6
20260906031023 72 312 0.0 0.0 0.00 0.36 0.36 95 1012.4
20260906021030 73 312 0.0 0.0 0.00 0.36 0.36 94 1012.5
20260906011018 74 312 0.0 0.0 0.00 0.36 0.36 93 1012.1
20260906001024 75 312 0.0 0.0 0.00 0.36 0.36 92 1011.3